Tracking 19193 objects as of 24-Jun-2018
HD Live streaming from Space Station
objects crossing your sky now

FENGYUN 1C DEB

Track FENGYUN 1C DEB now!
10-day predictions


NORAD ID: 36693
Int'l Code: 1999-025DZP
Perigee: 567.8 km
Apogee: 797.3 km
Inclination: 97.6 °
Period: 98.3 minutes
Semi major axis: 7053 km
RCS: 0.009 m2 (small)
Launch date: May 10, 1999
Source: People's Republic of China (PRC)
Launch site: Taiyaun Space Center, China (TSC)

Note: This is SATELLITE DEBRIS
aabbcc
Your satellite tracking list
Your tracking list is empty




NASA's NSSDC Master Catalog

Two Line Element Set (TLE):
1 36693U 99025DZP 18166.57692113  .00002227  00000-0  34527-3 0  9995
2 36693  97.6042  91.6191 0162670 118.2058 243.5682 14.65514722569682
Source of the keplerian elements: AFSPC